N7CW Weather Reports


time (UTC)temp
C
wind
direction
speed
KPH
gust
KPH
rain 1hr
cm
rain 24hr
cm
rain mn
cm
humidity
%
barometer
mb
20260507040908 13 247 6.4 6.4 0.00 0.00 0.00 39 1019.5
20260507040404 13 232 9.7 11.3 0.00 0.00 0.00 39 1019.3
20260507035900 13 245 9.7 11.3 0.00 0.00 0.00 39 1019.4
20260507035356 13 226 11.3 12.9 0.00 0.00 0.00 39 1019.1
20260507034853 13 222 12.9 14.5 0.00 0.00 0.00 39 1019.3
20260507034350 13 236 6.4 6.4 0.00 0.00 0.00 39 1019.2
20260507033848 13 224 9.7 12.9 0.00 0.00 0.00 39 1019.0
20260507033346 13 241 9.7 11.3 0.00 0.00 0.00 39 1018.8
20260507032843 13 281 6.4 6.4 0.00 0.00 0.00 39 1019.1
20260507032339 14 204 6.4 6.4 0.00 0.00 0.00 38 1019.2
20260507031835 14 237 11.3 12.9 0.00 0.00 0.00 38 1018.8
20260507031332 14 238 9.7 14.5 0.00 0.00 0.00 38 1018.7
20260507030829 14 191 4.8 6.4 0.00 0.00 0.00 38 1019.0
20260507030327 14 174 6.4 6.4 0.00 0.00 0.00 38 1018.5
20260507025823 15 166 6.4 6.4 0.00 0.00 0.00 37 1018.7
20260507025321 15 200 4.8 4.8 0.00 0.00 0.00 37 1018.4
20260507024818 15 186 6.4 6.4 0.00 0.00 0.00 37 1018.4
20260507024315 15 158 1.6 1.6 0.00 0.00 0.00 36 1018.0
20260507023811 15 215 6.4 6.4 0.00 0.00 0.00 36 1018.2
20260507023307 15 244 14.5 20.9 0.00 0.00 0.00 36 1017.9
20260507022805 15 192 6.4 6.4 0.00 0.00 0.00 36 1018.0
20260507022301 15 254 8.0 9.7 0.00 0.00 0.00 35 1017.9
20260507021757 16 254 9.7 12.9 0.00 0.00 0.00 35 1017.8
20260507021253 16 247 6.4 9.7 0.00 0.00 0.00 35 1017.8
20260507020752 16 260 8.0 11.3 0.00 0.00 0.00 35 1017.7
20260507020248 16 270 6.4 9.7 0.00 0.00 0.00 34 1017.7
20260507015745 16 248 9.7 11.3 0.00 0.00 0.00 34 1017.7
20260507015243 17 271 9.7 11.3 0.00 0.00 0.00 33 1017.7
20260507014739 17 278 9.7 14.5 0.00 0.00 0.00 33 1017.5
20260507014236 17 259 6.4 6.4 0.00 0.00 0.00 33 1017.4
20260507013732 17 231 14.5 16.1 0.00 0.00 0.00 33 1017.2
20260507013230 17 266 9.7 14.5 0.00 0.00 0.00 32 1017.7
20260507012727 18 250 12.9 16.1 0.00 0.00 0.00 32 1017.2
20260507012222 18 338 11.3 12.9 0.00 0.00 0.00 31 1017.3
20260507011720 18 291 16.1 17.7 0.00 0.00 0.00 31 1017.4
20260507011217 18 329 6.4 9.7 0.00 0.00 0.00 30 1017.3
20260507010716 18 280 11.3 14.5 0.00 0.00 0.00 30 1017.3
20260507010212 19 303 9.7 12.9 0.00 0.00 0.00 30 1017.1
20260507005710 19 314 14.5 17.7 0.00 0.00 0.00 30 1017.4
20260507005206 20 296 14.5 20.9 0.00 0.00 0.00 30 1017.5
20260507004703 20 253 8.0 16.1 0.00 0.00 0.00 29 1017.3
20260507004201 20 98 0.0 0.0 0.00 0.00 0.00 29 1017.3
20260507003657 20 307 9.7 11.3 0.00 0.00 0.00 27 1017.3
20260507003157 20 263 4.8 4.8 0.00 0.00 0.00 27 1017.1
20260507002653 20 234 6.4 9.7 0.00 0.00 0.00 27 1016.8
20260507002149 20 236 19.3 22.5 0.00 0.00 0.00 30 1017.0
20260507001646 20 258 6.4 6.4 0.00 0.00 0.00 29 1017.1
20260507001144 20 14 4.8 4.8 0.00 0.00 0.00 28 1017.1
20260507000640 20 112 0.0 1.6 0.00 0.00 0.00 27 1017.1
20260507000135 20 85 1.6 3.2 0.00 0.00 0.00 27 1017.1
20260506235633 20 242 8.0 9.7 0.00 0.00 0.00 27 1016.8
20260506235128 21 280 9.7 11.3 0.00 0.00 0.00 26 1017.0
20260506234626 21 23 9.7 12.9 0.00 0.00 0.00 28 1017.0
20260506234123 20 323 6.4 9.7 0.00 0.00 0.00 28 1017.1
20260506233620 20 235 12.9 14.5 0.00 0.00 0.00 28 1017.2
20260506233117 21 229 4.8 6.4 0.00 0.00 0.00 27 1016.8
20260506232612 19 197 6.4 9.7 0.00 0.00 0.00 29 1017.0
20260506232108 20 226 6.4 9.7 0.00 0.00 0.00 29 1017.0
20260506231605 21 118 0.0 1.6 0.00 0.00 0.00 27 1016.8
20260506231104 21 147 3.2 3.2 0.00 0.00 0.00 26 1017.1
20260506230600 20 252 6.4 6.4 0.00 0.00 0.00 27 1017.0
20260506230057 21 240 8.0 14.5 0.00 0.00 0.00 27 1016.8
20260506225554 20 251 6.4 9.7 0.00 0.00 0.00 27 1016.8
20260506225050 19 125 1.6 3.2 0.00 0.00 0.00 28 1017.1
20260506224547 18 112 3.2 3.2 0.00 0.00 0.00 28 1017.0
20260506224044 18 94 0.0 1.6 0.00 0.00 0.00 28 1017.1
20260506223540 19 340 3.2 4.8 0.00 0.00 0.00 28 1017.2
20260506223036 19 28 3.2 3.2 0.00 0.00 0.00 28 1017.2
20260506222533 20 307 8.0 9.7 0.00 0.00 0.00 27 1017.1
20260506222029 20 333 9.7 11.3 0.00 0.00 0.00 28 1017.3
20260506221527 19 55 6.4 9.7 0.00 0.00 0.00 28 1017.2
20260506221025 18 40 12.9 14.5 0.00 0.00 0.00 28 1017.3
20260506220521 18 36 3.2 3.2 0.00 0.00 0.00 29 1017.2
20260506220016 18 101 3.2 4.8 0.00 0.00 0.00 30 1017.4
20260506215513 20 4 11.3 16.1 0.00 0.00 0.00 28 1017.3
20260506215009 20 98 1.6 3.2 0.00 0.00 0.00 27 1017.5
20260506214506 18 135 3.2 3.2 0.00 0.00 0.00 27 1017.8
20260506214003 18 99 1.6 3.2 0.00 0.00 0.00 27 1017.8
20260506213502 18 94 0.0 1.6 0.00 0.00 0.00 28 1017.5
20260506212958 18 45 8.0 11.3 0.00 0.00 0.00 28 1017.7
20260506212454 20 84 3.2 3.2 0.00 0.00 0.00 27 1017.7
20260506211949 20 152 0.0 1.6 0.00 0.00 0.00 26 1017.7
20260506211445 18 184 6.4 6.4 0.00 0.00 0.00 28 1017.8
20260506210943 18 145 1.6 1.6 0.00 0.00 0.00 29 1018.1
20260506210439 18 98 1.6 3.2 0.00 0.00 0.00 28 1018.0
20260506205937 19 329 3.2 4.8 0.00 0.00 0.00 28 1018.2
20260506205433 20 41 11.3 14.5 0.00 0.00 0.00 27 1018.1
20260506204928 20 47 4.8 4.8 0.00 0.00 0.00 27 1018.0
20260506204427 18 88 1.6 1.6 0.00 0.00 0.00 28 1018.1
20260506203924 18 69 11.3 12.9 0.00 0.00 0.00 29 1018.4
20260506203420 18 120 1.6 1.6 0.00 0.00 0.00 28 1018.2
20260506202918 18 120 0.0 1.6 0.00 0.00 0.00 29 1018.4
20260506202414 18 68 8.0 9.7 0.00 0.00 0.00 29 1018.1
20260506201911 17 58 3.2 3.2 0.00 0.00 0.00 29 1018.4
20260506201409 18 33 11.3 12.9 0.00 0.00 0.00 29 1018.4
20260506200905 18 354 9.7 11.3 0.00 0.00 0.00 29 1018.2
20260506200401 18 195 3.2 4.8 0.00 0.00 0.00 29 1018.1
20260506195857 18 34 6.4 6.4 0.00 0.00 0.00 29 1018.2
20260506195355 17 18 3.2 6.4 0.00 0.00 0.00 29 1018.6
20260506194851 17 16 6.4 9.7 0.00 0.00 0.00 30 1018.5
20260506194348 17 322 9.7 11.3 0.00 0.00 0.00 31 1018.5
20260506193846 17 336 11.3 12.9 0.00 0.00 0.00 30 1018.5
20260506193342 17 34 11.3 14.5 0.00 0.00 0.00 29 1018.6
20260506192839 17 46 11.3 16.1 0.00 0.00 0.00 30 1018.6
20260506192335 17 51 1.6 3.2 0.00 0.00 0.00 30 1018.5
20260506191833 17 50 4.8 6.4 0.00 0.00 0.00 30 1018.6
20260506191329 16 62 3.2 3.2 0.00 0.00 0.00 31 1018.5
20260506190826 16 219 6.4 11.3 0.00 0.00 0.00 31 1018.6
20260506190322 17 16 6.4 11.3 0.00 0.00 0.00 30 1018.6
20260506185819 16 60 6.4 12.9 0.00 0.00 0.00 30 1018.4
20260506185316 16 58 6.4 9.7 0.00 0.00 0.00 30 1018.5
20260506184813 17 39 9.7 16.1 0.00 0.00 0.00 30 1018.2
20260506184310 16 67 6.4 6.4 0.00 0.00 0.00 30 1018.5
20260506183808 16 326 9.7 11.3 0.00 0.00 0.00 30 1018.7
20260506183303 16 15 8.0 12.9 0.00 0.00 0.00 30 1018.6
20260506182800 16 118 0.0 1.6 0.00 0.00 0.00 31 1018.6
20260506182257 16 48 6.4 9.7 0.00 0.00 0.00 30 1018.7
20260506181755 17 52 6.4 6.4 0.00 0.00 0.00 30 1018.5
20260506181253 16 140 3.2 3.2 0.00 0.00 0.00 30 1018.6
20260506180749 16 107 0.0 1.6 0.00 0.00 0.00 32 1018.6
20260506180245 15 53 6.4 9.7 0.00 0.00 0.00 33 1018.8
20260506175741 15 52 9.7 14.5 0.00 0.00 0.00 33 1018.7
20260506175239 16 82 3.2 4.8 0.00 0.00 0.00 32 1018.7
20260506174737 16 95 1.6 3.2 0.00 0.00 0.00 32 1018.6
20260506174233 16 95 8.0 9.7 0.00 0.00 0.00 31 1018.5
20260506173731 16 110 1.6 3.2 0.00 0.00 0.00 33 1018.6
20260506173227 15 258 8.0 11.3 0.00 0.00 0.00 33 1018.6
20260506172724 16 51 1.6 3.2 0.00 0.00 0.00 34 1018.5
20260506172221 15 118 3.2 4.8 0.00 0.00 0.00 33 1018.6
20260506171718 14 113 8.0 11.3 0.00 0.00 0.00 35 1018.5
20260506171216 14 97 3.2 4.8 0.00 0.00 0.00 36 1018.5
20260506170713 15 66 3.2 3.2 0.00 0.00 0.00 35 1018.4
20260506170210 15 294 3.2 6.4 0.00 0.00 0.00 35 1018.5
20260506165708 14 169 4.8 4.8 0.00 0.00 0.00 36 1018.4
20260506165204 14 242 6.4 9.7 0.00 0.00 0.00 36 1018.2
20260506164702 14 125 1.6 1.6 0.00 0.00 0.00 35 1018.2
20260506164159 13 211 3.2 4.8 0.00 0.00 0.00 36 1018.2
20260506163655 13 51 3.2 4.8 0.00 0.00 0.00 36 1018.4
20260506163150 13 118 3.2 3.2 0.00 0.00 0.00 37 1018.5
20260506162647 13 356 4.8 4.8 0.00 0.00 0.00 38 1018.5
20260506162144 13 353 6.4 6.4 0.00 0.00 0.00 36 1018.1
20260506161641 13 274 4.8 4.8 0.00 0.00 0.00 36 1018.2
20260506161138 13 222 4.8 4.8 0.00 0.00 0.00 37 1018.0
20260506160636 12 1 4.8 4.8 0.00 0.00 0.00 38 1018.1
20260506160132 12 171 6.4 9.7 0.00 0.00 0.00 36 1018.2
20260506155631 12 233 3.2 3.2 0.00 0.00 0.00 37 1018.1
20260506155128 12 157 3.2 4.8 0.00 0.00 0.00 38 1018.0
20260506153230 12 170 4.8 6.4 0.00 0.00 0.00 38 1018.1
20260506152727 12 149 1.6 1.6 0.00 0.00 0.00 39 1017.9
20260506152224 12 170 3.2 3.2 0.00 0.00 0.00 38 1018.0
20260506151724 11 100 1.6 3.2 0.00 0.00 0.00 37 1018.0
20260506151219 11 98 1.6 3.2 0.00 0.00 0.00 40 1017.9
20260506150716 11 293 6.4 9.7 0.00 0.00 0.00 42 1017.8
20260506150213 11 201 6.4 6.4 0.00 0.00 0.00 41 1017.9
20260506145710 11 345 3.2 4.8 0.00 0.00 0.00 41 1017.9
20260506145207 11 193 3.2 4.8 0.00 0.00 0.00 41 1017.9
20260506144704 11 304 3.2 3.2 0.00 0.00 0.00 41 1017.7
20260506144201 11 325 3.2 4.8 0.00 0.00 0.00 40 1017.7
20260506143659 11 16 3.2 4.8 0.00 0.00 0.00 41 1017.7
20260506143156 10 172 1.6 1.6 0.00 0.00 0.00 41 1017.5
20260506142655 11 16 6.4 9.7 0.00 0.00 0.00 41 1017.5
20260506142152 10 93 0.0 0.0 0.00 0.00 0.00 46 1017.7
20260506141649 11 107 0.0 0.0 0.00 0.00 0.00 44 1017.5
20260506141147 10 131 0.0 0.0 0.00 0.00 0.00 49 1017.5
20260506140645 9 131 1.6 1.6 0.00 0.00 0.00 49 1017.7
20260506140142 9 118 0.0 1.6 0.00 0.00 0.00 51 1017.7
20260506135639 9 126 1.6 1.6 0.00 0.00 0.00 51 1017.5
20260506135135 8 102 1.6 3.2 0.00 0.00 0.00 51 1017.7
20260506134632 8 100 1.6 1.6 0.00 0.00 0.00 53 1017.4
20260506134127 8 98 1.6 1.6 0.00 0.00 0.00 54 1017.4
20260506133625 8 106 0.0 0.0 0.00 0.00 0.00 54 1017.2
20260506133122 7 119 0.0 0.0 0.00 0.00 0.00 55 1017.2
20260506132619 7 180 3.2 3.2 0.00 0.00 0.00 57 1017.1
20260506132116 6 150 3.2 3.2 0.00 0.00 0.00 57 1017.1
20260506131613 5 165 1.6 1.6 0.00 0.00 0.00 61 1017.2
20260506131109 5 159 3.2 3.2 0.00 0.00 0.00 65 1017.2
20260506130607 4 194 4.8 4.8 0.00 0.00 0.00 67 1017.2
20260506130104 3 197 4.8 4.8 0.00 0.00 0.00 68 1016.8
20260506125603 3 159 3.2 3.2 0.00 0.00 0.00 68 1017.0
20260506125100 3 120 0.0 0.0 0.00 0.00 0.00 69 1016.7
20260506124557 3 104 0.0 0.0 0.00 0.00 0.00 69 1016.8
20260506124055 3 103 0.0 0.0 0.00 0.00 0.00 69 1016.6
20260506123552 3 107 0.0 0.0 0.00 0.00 0.00 67 1016.8
20260506123051 5 109 0.0 0.0 0.00 0.00 0.00 65 1016.6
20260506122547 5 140 1.6 1.6 0.00 0.00 0.00 64 1016.4
20260506122045 5 158 1.6 1.6 0.00 0.00 0.00 63 1016.2
20260506121542 4 174 1.6 1.6 0.00 0.00 0.00 64 1016.4
20260506121038 4 180 3.2 3.2 0.00 0.00 0.00 66 1016.5
20260506120537 3 169 3.2 3.2 0.00 0.00 0.00 66 1016.4
20260506120034 3 171 1.6 1.6 0.00 0.00 0.00 66 1016.6
20260506115532 3 187 3.2 3.2 0.00 0.00 0.00 67 1016.6
20260506115030 3 143 1.6 1.6 0.00 0.00 0.00 65 1016.6
20260506114527 3 123 0.0 0.0 0.00 0.00 0.00 66 1016.6
20260506114025 3 118 0.0 0.0 0.00 0.00 0.00 66 1016.6
20260506113523 4 103 0.0 0.0 0.00 0.00 0.00 64 1016.4
20260506113020 4 103 0.0 0.0 0.00 0.00 0.00 64 1016.5
20260506112517 4 104 0.0 0.0 0.00 0.00 0.00 63 1016.2
20260506112014 4 127 0.0 0.0 0.00 0.00 0.00 64 1016.2
20260506111512 4 129 0.0 0.0 0.00 0.00 0.00 64 1016.2
20260506111009 3 132 0.0 0.0 0.00 0.00 0.00 65 1016.4
20260506110507 3 135 1.6 1.6 0.00 0.00 0.00 67 1016.6
20260506110003 3 105 0.0 0.0 0.00 0.00 0.00 67 1016.4
20260506105459 3 105 0.0 0.0 0.00 0.00 0.00 67 1016.2
20260506104957 3 98 0.0 1.6 0.00 0.00 0.00 66 1016.4
20260506104454 5 88 1.6 1.6 0.00 0.00 0.00 62 1016.1
20260506103953 4 115 1.6 1.6 0.00 0.00 0.00 62 1016.0
20260506103449 5 107 0.0 1.6 0.00 0.00 0.00 62 1016.1
20260506102946 5 98 0.0 1.6 0.00 0.00 0.00 62 1016.2
20260506102444 5 134 0.0 0.0 0.00 0.00 0.00 60 1016.0
20260506101941 5 229 1.6 3.2 0.00 0.00 0.00 62 1016.1
20260506101438 5 220 4.8 4.8 0.00 0.00 0.00 60 1016.2
20260506100935 5 195 4.8 4.8 0.00 0.00 0.00 62 1016.2
20260506100434 5 187 3.2 3.2 0.00 0.00 0.00 60 1016.1
20260506095931 5 222 4.8 4.8 0.00 0.00 0.00 59 1016.2
20260506095430 5 156 1.6 1.6 0.00 0.00 0.00 60 1016.2
20260506094925 6 192 3.2 3.2 0.00 0.00 0.00 57 1016.2
20260506094424 6 235 6.4 6.4 0.00 0.00 0.00 57 1016.4
20260506093921 6 200 4.8 4.8 0.00 0.00 0.00 57 1016.2
20260506093419 6 175 4.8 4.8 0.00 0.00 0.00 57 1016.0
20260506092916 6 218 3.2 3.2 0.00 0.00 0.00 57 1016.0
20260506092415 6 111 0.0 0.0 0.00 0.00 0.00 56 1016.0
20260506091910 7 226 8.0 9.7 0.00 0.00 0.00 55 1015.9
20260506091409 6 229 9.7 11.3 0.00 0.00 0.00 55 1015.8
20260506090905 7 228 4.8 4.8 0.00 0.00 0.00 55 1015.9
20260506090403 6 234 6.4 9.7 0.00 0.00 0.00 55 1015.8
20260506085900 7 220 8.0 11.3 0.00 0.00 0.00 54 1015.8
20260506085356 6 227 8.0 11.3 0.00 0.00 0.00 54 1015.8
20260506084852 6 229 6.4 6.4 0.00 0.00 0.00 56 1015.7
20260506084349 6 237 8.0 9.7 0.00 0.00 0.00 54 1015.7
20260506083846 6 258 4.8 4.8 0.00 0.00 0.00 55 1015.9
20260506083343 6 120 0.0 1.6 0.00 0.00 0.00 55 1015.7
20260506082835 6 182 4.8 4.8 0.00 0.00 0.00 55 1015.9
20260506082332 6 238 4.8 4.8 0.00 0.00 0.00 55 1015.7
20260506081828 5 190 3.2 4.8 0.00 0.00 0.00 57 1015.7
20260506081326 6 196 3.2 3.2 0.00 0.00 0.00 55 1015.8
20260506080824 6 85 0.0 1.6 0.00 0.00 0.00 54 1015.7
20260506080319 6 242 4.8 4.8 0.00 0.00 0.00 58 1015.8
20260506073304 5 174 1.6 1.6 0.00 0.00 0.00 57 1016.2
20260506072800 5 149 0.0 0.0 0.00 0.00 0.00 58 1015.9
20260506072259 5 146 1.6 1.6 0.00 0.00 0.00 56 1016.0
20260506071756 5 239 3.2 4.8 0.00 0.00 0.00 55 1015.8
20260506071254 5 170 1.6 1.6 0.00 0.00 0.00 57 1015.9
20260506070750 6 153 1.6 1.6 0.00 0.00 0.00 53 1015.9
20260506070247 6 214 3.2 3.2 0.00 0.00 0.00 54 1016.0
20260506062224 7 231 6.4 6.4 0.00 0.00 0.00 50 1015.8
20260506061720 7 242 6.4 9.7 0.00 0.00 0.00 51 1015.7
20260506061217 7 227 4.8 6.4 0.00 0.00 0.00 50 1015.5
20260506060716 7 209 3.2 4.8 0.00 0.00 0.00 50 1015.7
20260506060213 6 234 9.7 11.3 0.00 0.00 0.00 51 1015.7
20260506051144 8 218 6.4 6.4 0.00 0.00 0.00 47 1015.5
20260506050643 8 209 6.4 9.7 0.00 0.00 0.00 47 1015.3
20260506050139 8 221 6.4 6.4 0.00 0.00 0.00 48 1015.5
20260506045132 7 222 6.4 9.7 0.00 0.00 0.00 48 1015.3
20260506044631 7 225 8.0 9.7 0.00 0.00 0.00 49 1015.3
20260506044127 8 216 6.4 6.4 0.00 0.00 0.00 49 1015.1
20260506043624 8 221 6.4 6.4 0.00 0.00 0.00 49 1015.2
20260506043123 7 198 6.4 6.4 0.00 0.00 0.00 49 1014.8
20260506042621 7 210 4.8 4.8 0.00 0.00 0.00 49 1015.2
20260506042119 8 192 6.4 6.4 0.00 0.00 0.00 49 1015.2
20260506041618 8 187 6.4 6.4 0.00 0.00 0.00 48 1015.1